Theta_e
308 309 309 308 308 305 305 305 305 304 304 304 304 303 303 303 303 304 307 310 309 311 313 311 313 313 311 312 313 315 311 312 314 317 318 320 320 322 323 328 329 333 341 338 338
308 307 307 308 308 308 306 305 304 304 304 304 304 304 303 303 303 304 310 309 308 308 310 311 311 316 313 314 315 312 309 312 315 318 318 319 319 320 322 321 326 328 328 327 328
307 306 306 306 307 309 308 307 307 306 305 304 304 303 303 302 303 309 314 310 308 310 311 311 311 313 315 315 314 312 311 314 317 319 319 318 319 321 320 320 321 321 323 324 325
303 304 305 307 308 309 309 309 308 307 307 306 304 303 302 302 317 322 318 317 308 309 310 311 310 310 311 311 315 313 314 315 316 317 318 317 320 320 320 320 321 321 321 321 321
302 304 306 309 311 311 311 310 309 309 308 307 307 304 302 305 307 317 316 315 309 311 311 310 310 312 312 311 313 312 312 315 316 317 318 319 318 319 320 320 320 320 321 321 321
304 306 308 311 312 312 312 312 310 308 308 310 308 306 303 307 314 319 315 312 312 310 309 308 315 316 316 314 312 315 314 315 316 317 317 317 318 318 319 320 320 320 319 320 320
308 310 311 312 313 313 313 313 311 308 311 310 312 310 309 308 318 317 317 312 310 309 308 312 317 315 315 316 317 315 313 313 314 317 315 318 316 316 319 319 320 319 319 319 319
313 313 314 313 313 313 313 313 312 307 311 311 311 311 312 315 316 318 316 315 313 310 312 317 318 318 315 318 316 316 314 314 313 316 317 317 316 316 319 319 319 319 319 319 319
313 313 313 314 313 312 312 312 313 307 308 311 311 312 317 317 318 315 316 319 319 320 320 318 318 318 318 314 312 312 315 315 316 316 316 315 315 316 319 318 318 319 319 319 319
314 314 312 313 313 312 311 312 313 310 311 313 315 315 315 319 318 317 314 317 319 319 318 317 317 313 311 311 314 314 315 315 316 317 316 315 315 316 318 318 318 319 320 319 320
312 312 311 312 312 311 313 313 314 319 317 316 315 314 318 321 319 318 313 314 317 317 314 316 313 313 312 312 314 315 315 315 315 316 317 315 315 314 316 316 317 319 319 319 320
310 311 311 311 311 311 313 313 315 316 317 318 319 319 318 319 320 315 313 312 317 314 313 314 312 313 314 315 315 315 315 314 315 316 316 317 316 316 316 316 318 319 320 320 320
311 311 311 312 311 313 315 315 315 314 316 317 317 319 319 319 320 316 313 312 318 317 314 313 315 315 316 316 318 316 315 316 317 318 317 317 315 315 316 318 320 320 320 321 320
310 311 311 311 314 316 318 318 318 314 316 319 318 320 320 320 319 319 313 313 316 317 315 314 315 316 317 317 318 318 316 317 317 317 315 316 316 314 315 316 317 319 320 320 320
310 310 311 310 312 317 318 318 319 316 323 323 320 320 320 319 318 318 318 315 315 316 315 315 318 317 317 317 317 316 317 317 317 316 316 315 313 313 315 316 316 315 320 321 322
310 310 310 311 314 318 318 318 318 320 326 322 319 318 319 320 318 318 318 317 317 317 316 316 317 317 316 317 317 317 317 315 314 312 314 314 315 314 316 316 316 318 321 323 321
310 310 312 313 317 318 318 318 317 322 325 322 320 318 318 318 319 317 317 316 316 316 316 317 317 316 317 317 316 316 314 314 315 313 315 316 317 314 316 320 321 322 321 322 321
310 311 315 318 317 318 317 315 320 324 326 326 322 318 318 318 318 317 317 316 316 315 315 317 320 320 320 318 317 314 313 314 317 316 316 318 319 319 320 323 323 321 320 321 321
309 313 314 318 318 318 318 319 322 326 322 321 321 319 319 320 321 319 317 318 318 316 316 323 322 322 322 322 321 320 318 315 318 318 318 318 318 320 323 322 322 322 321 321 320
309 314 320 321 318 318 317 321 323 324 320 321 322 323 325 325 326 324 320 322 322 320 319 321 323 321 321 320 319 320 320 321 318 322 322 321 321 322 324 321 320 319 320 321 320
310 317 320 319 318 318 320 323 325 323 320 321 321 321 321 325 324 324 325 320 320 319 318 319 319 321 320 320 320 318 319 319 318 322 321 318 320 320 322 320 319 319 321 321 320
311 317 320 317 317 317 320 324 324 323 320 319 319 321 321 320 320 320 323 320 319 319 320 318 318 322 321 318 318 317 319 321 322 323 320 314 318 319 318 319 320 320 319 319 322
309 313 320 318 319 319 323 321 323 323 319 318 320 319 318 318 318 319 319 318 318 319 320 318 316 316 314 318 318 320 320 320 322 323 326 329 326 319 318 317 319 319 319 319 318
309 314 319 320 319 319 321 321 322 320 319 317 317 317 316 317 316 317 318 317 318 319 319 316 315 314 313 317 316 317 316 315 318 323 323 324 321 319 318 317 316 317 318 319 319
311 315 314 317 317 315 317 318 318 321 315 315 316 316 316 315 314 315 314 314 318 320 316 312 314 316 316 315 315 315 315 315 315 314 317 317 316 315 315 315 316 316 316 315 315
312 313 313 314 315 316 314 315 318 316 315 315 314 314 312 313 313 314 313 313 314 316 316 312 315 314 316 315 315 315 314 315 315 314 314 315 315 313 313 314 313 314 314 313 313
311 312 312 312 314 316 314 316 315 313 313 312 311 311 313 312 311 311 311 312 312 312 313 312 313 313 314 313 313 312 311 312 313 313 313 315 315 314 313 313 312 313 313 313 312
Wind_Speed
19 20 21 21 20 14 11 8 6 5 5 5 6 7 8 9 12 18 27 26 23 12 11 9 10 10 11 11 13 5 2 4 6 7 6 12 5 16 14 5 8 10 25 21 17
17 18 20 20 20 18 13 11 8 6 5 5 6 6 7 9 13 22 19 18 19 23 21 15 11 12 8 9 7 5 5 8 6 2 3 17 7 12 8 11 7 25 21 16 13
16 16 17 19 20 19 16 12 10 6 5 4 5 6 6 7 9 7 4 15 20 22 15 17 13 5 13 9 8 7 6 4 9 14 12 12 18 8 4 1 4 5 5 7 14
18 17 17 16 18 19 18 14 9 7 5 4 4 4 5 6 4 4 2 5 21 26 18 16 13 5 5 6 14 3 11 15 21 25 20 7 14 3 5 10 6 7 9 3 4
19 19 18 17 17 18 18 17 12 6 5 3 3 4 5 5 10 0 2 6 19 21 20 18 16 10 5 7 12 6 9 20 29 30 24 24 16 11 10 11 11 8 11 13 9
15 19 19 19 18 17 18 19 18 6 4 4 3 4 5 3 6 4 2 8 15 20 19 20 12 11 7 10 8 9 18 23 28 30 23 8 11 11 9 12 19 18 14 14 16
16 16 19 19 20 20 18 19 18 7 5 5 4 5 9 13 7 4 3 6 10 15 19 22 12 9 2 6 10 18 5 8 13 20 9 11 7 7 21 18 21 22 21 19 19
19 18 19 20 21 22 20 18 16 7 7 6 7 7 9 5 11 12 9 7 9 12 16 10 8 17 13 7 7 3 3 3 6 6 11 9 11 8 21 23 24 26 26 24 21
22 22 22 22 21 22 22 19 14 9 8 8 6 6 10 11 16 18 13 11 12 11 10 7 11 4 4 4 5 5 2 5 8 6 3 6 10 13 30 22 22 25 30 30 22
23 24 25 24 25 22 23 19 12 10 8 6 7 5 12 10 17 18 19 15 14 12 16 11 2 2 3 4 5 5 3 5 6 4 4 11 16 19 26 23 26 30 28 24 26
24 25 25 24 24 27 23 13 5 4 12 12 8 11 2 5 7 17 19 20 22 19 5 3 3 6 10 7 6 6 5 8 10 11 4 7 6 13 17 10 14 13 17 24 22
23 23 25 24 24 26 21 10 9 4 9 18 23 24 22 13 5 13 21 14 8 4 4 1 8 9 9 7 8 9 10 11 8 11 7 3 6 6 4 8 16 16 21 25 27
23 23 24 26 26 16 10 12 12 14 4 9 23 24 19 10 7 16 23 21 4 6 6 8 9 10 11 11 9 10 9 6 7 6 2 1 6 4 6 7 13 17 22 25 31
25 23 23 27 10 5 7 15 10 5 2 5 9 8 12 9 5 14 24 22 5 10 6 6 12 12 6 8 8 14 7 7 5 2 6 4 6 5 7 8 6 20 23 28 31
27 24 22 22 17 8 7 10 2 7 1 6 7 6 12 14 4 9 17 14 9 6 7 8 2 3 3 4 1 6 5 4 2 4 1 6 3 7 2 7 9 10 27 29 36
26 22 24 13 12 3 3 5 10 2 5 6 7 7 8 8 2 6 12 10 5 3 2 6 7 3 5 3 3 6 2 5 4 3 0 5 5 4 4 6 8 13 25 22 28
27 24 15 11 4 1 4 4 4 1 5 6 5 6 8 7 6 6 7 6 5 5 4 3 8 5 7 5 2 4 5 3 4 3 5 5 4 7 9 5 3 7 12 2 17
26 18 9 6 9 2 4 4 3 5 5 8 7 12 8 6 5 12 8 5 5 4 2 3 4 2 3 6 7 6 8 5 5 4 4 4 4 5 3 5 8 15 18 21 25
26 13 12 7 16 7 3 2 4 3 4 4 1 6 7 8 5 6 9 11 7 10 7 4 5 3 1 7 1 3 3 5 3 1 2 4 6 4 7 10 9 13 17 15 16
26 16 9 11 17 11 3 4 4 5 3 4 3 6 6 1 4 5 7 2 4 4 4 3 2 2 4 5 2 5 2 1 3 1 4 4 4 4 3 7 10 10 12 14 4
17 9 3 13 18 6 3 4 7 9 1 3 1 3 5 3 4 3 5 5 4 3 7 2 3 4 3 1 1 5 3 3 2 5 4 2 5 4 5 4 6 5 5 7 8
7 2 13 19 4 4 3 2 4 16 9 1 3 5 4 4 4 3 5 2 4 2 3 1 3 2 4 6 2 2 1 4 4 4 2 3 6 7 4 1 3 3 4 5 12
17 7 13 19 2 2 2 3 2 4 5 2 4 5 3 3 4 4 6 2 6 4 4 0 2 2 8 3 5 5 2 2 4 2 5 3 3 1 7 9 11 6 16 15 14
6 3 3 18 6 2 1 3 0 7 6 6 4 5 4 3 4 3 4 2 5 5 7 6 2 5 6 2 1 3 7 3 4 3 2 10 8 11 15 15 12 23 26 23 24
3 3 4 3 2 7 3 3 2 4 3 6 6 7 4 3 2 3 5 5 8 7 5 4 4 1 2 5 4 5 10 12 10 7 8 7 15 8 9 12 21 24 18 7 16
4 4 8 4 10 7 3 1 2 4 3 4 6 6 8 5 3 2 3 2 2 1 3 4 3 3 2 7 8 9 13 14 16 15 15 16 21 12 12 4 15 18 20 19 17
5 4 4 5 3 2 4 2 4 5 10 11 7 6 8 3 4 4 2 4 4 5 3 3 4 2 3 3 6 9 7 7 8 10 9 14 4 4 7 7 9 16 16 15 16
Wind_Direction
0 3 6 12 12 5 357 350 330 314 296 278 260 253 253 247 243 243 237 233 228 197 185 179 193 197 209 216 210 172 83 233 236 177 270 338 334 315 336 251 124 138 145 142 147
352 356 358 1 8 13 4 358 355 339 318 293 273 260 255 257 258 252 249 235 226 209 214 204 197 181 183 205 199 158 163 227 217 222 313 312 338 320 355 9 71 124 133 141 153
342 348 354 354 357 3 12 359 353 351 335 298 275 266 265 272 286 261 203 218 207 194 193 210 197 175 213 209 203 194 202 226 266 266 270 274 295 276 325 19 36 19 115 141 194
338 340 343 349 349 351 356 4 347 337 331 301 286 281 264 254 213 146 6 209 195 195 195 196 206 193 192 200 217 236 238 240 263 267 271 260 276 244 226 264 269 282 294 274 117
331 335 337 340 342 343 343 344 342 318 312 303 284 263 253 244 244 238 25 180 182 188 199 200 192 191 186 199 228 181 254 257 258 258 260 267 266 247 231 265 297 293 265 272 275
332 327 332 333 333 334 335 335 335 281 272 290 293 265 236 251 196 189 307 193 191 192 200 200 198 214 261 217 156 234 233 251 260 257 254 227 260 270 243 261 267 278 277 271 276
333 333 327 326 325 325 327 329 333 285 244 241 270 274 263 236 204 206 303 206 195 197 192 188 201 245 257 315 302 259 252 268 254 247 239 231 273 241 267 267 268 269 270 267 262
330 329 327 324 322 319 317 320 321 291 257 261 248 260 254 155 179 183 144 157 160 165 172 186 243 261 244 261 329 351 98 278 274 214 233 188 254 253 255 251 252 256 263 263 252
324 324 323 320 321 318 311 309 304 281 259 262 242 250 264 195 213 193 179 172 156 179 211 224 262 194 167 83 360 9 243 260 281 209 233 168 254 256 256 244 242 255 254 255 226
317 318 319 317 319 318 310 303 288 271 245 226 207 289 241 208 211 206 208 203 203 214 238 214 153 75 39 93 210 225 231 271 252 264 190 270 253 245 241 240 242 252 248 224 216
319 316 317 314 316 317 314 306 256 217 215 214 199 231 223 16 224 195 195 210 225 201 169 208 104 210 221 202 206 234 237 251 268 268 211 236 279 253 228 213 226 221 219 209 218
325 320 316 313 316 310 301 265 213 99 280 256 248 256 253 273 292 193 187 197 191 175 154 322 222 224 227 234 229 242 250 265 276 268 192 321 305 299 257 221 210 220 225 231 239
330 324 320 316 316 300 293 295 267 261 276 263 229 229 235 226 220 202 185 199 158 165 182 185 231 206 230 255 249 243 219 233 216 279 214 48 318 320 296 274 237 233 245 242 240
329 324 322 322 323 302 339 15 350 184 9 266 186 230 205 183 232 216 190 192 192 195 212 212 244 238 258 242 257 255 249 228 252 320 270 129 275 273 260 279 262 272 275 270 254
327 325 320 321 300 280 348 9 58 152 335 176 152 182 179 171 163 209 201 192 184 199 132 236 200 141 185 212 56 238 323 284 264 248 85 318 83 270 322 306 290 290 293 290 282
325 322 316 306 284 319 346 71 129 56 255 180 143 163 130 196 212 148 165 204 175 155 233 228 271 212 207 254 234 278 330 21 51 101 359 242 160 286 271 266 305 297 295 299 267
320 322 298 276 194 99 7 72 67 200 291 146 162 149 158 178 223 186 163 142 151 130 233 296 250 247 201 249 311 187 64 342 345 340 218 240 270 222 264 322 292 296 325 10 170
318 321 256 264 184 152 127 63 162 280 272 235 173 150 181 161 219 180 141 167 233 157 115 185 320 202 183 191 206 181 153 157 217 215 247 337 260 230 263 296 338 105 100 106 127
324 319 265 199 182 169 133 120 216 241 300 4 108 169 209 169 163 148 179 191 194 189 169 164 217 345 47 336 118 333 130 192 107 54 96 231 297 318 17 22 34 97 127 144 151
327 321 265 177 165 167 99 238 232 282 356 37 356 8 140 196 81 21 161 46 85 53 139 219 309 345 6 19 19 114 268 1 27 233 254 292 238 217 63 78 46 19 28 38 169
328 320 140 171 163 176 183 230 282 281 101 100 24 44 63 105 128 61 353 37 50 51 73 83 107 290 55 155 230 7 23 30 110 141 199 192 252 214 133 125 136 155 56 357 13
352 296 179 156 120 192 203 238 351 311 278 251 110 68 76 53 75 102 150 69 85 83 78 37 125 249 240 277 53 162 48 88 137 265 211 172 256 211 145 249 260 278 213 190 249
326 278 179 184 180 243 231 345 282 238 329 57 55 77 87 114 95 81 107 177 92 77 135 103 46 35 339 36 21 68 75 130 114 113 214 236 248 197 330 334 276 257 307 303 299
306 315 297 208 251 287 240 201 120 214 245 71 105 79 74 69 44 131 109 62 108 109 122 86 122 157 197 219 74 315 321 292 211 217 222 238 272 290 302 298 289 284 285 279 284
256 267 9 338 314 324 281 188 195 171 54 48 48 53 110 96 57 85 43 22 29 101 59 93 171 336 280 295 330 295 298 289 262 236 227 281 263 269 238 254 270 292 303 28 67
312 357 341 308 325 336 298 198 127 84 67 67 99 95 64 82 39 79 109 126 187 25 74 350 134 113 263 268 282 286 266 261 263 256 264 265 272 276 308 28 68 66 60 50 35
343 294 303 306 331 321 317 301 120 115 53 88 96 92 63 42 4 331 286 227 200 146 125 122 131 107 255 47 344 298 256 249 250 246 249 259 299 331 15 44 79 65 49 37 18